Preview of NWS' New Version of Forecast
This preview is not operational and should not be used for support decisions.

Regional Weather Roundup (RWR)

Issued by National Weather Service (NWS)

                            
000
ASPQ40 PGUM 190510
RWRPQ 
WEATHER ROUNDUP FOR THE MARIANAS AND MICRONESIA
NATIONAL WEATHER SERVICE TIYAN GU
300 PM CHST TUE MAR 19 2019

GUZ001>004-190600-
MARIANA ISLANDS-
  
CITY           SKY/WX    TMP DP  RH WIND       PRES   REMARKS
GUAM AIRPORT   PTSUNNY   84  70  61 E18       29.85F                  
ANDERSEN AFB   PTSUNNY   84  72  65 NE18G26   29.86F                  
ROTA AIRPORT   MOSUNNY   82  72  69 NE15      29.85F                  
TINIAN AP      MOSUNNY   86  70  58 E17       29.84F HX  90           
SAIPAN AP      MOSUNNY   88  70  55 E17       29.86F HX  92           

$$

PMZ161-190600-
REPUBLIC OF PALAU-
  
CITY           SKY/WX    TMP DP  RH WIND       PRES   REMARKS
KOROR AP       PTSUNNY   84  73  70 NE9G17    29.81F HX  91           
KOROR WSO      NOT AVBL                                               

$$

PMZ171>174-190600-
FEDERATED STATES OF MICRONESIA-
  
CITY           SKY/WX    TMP DP  RH WIND       PRES   REMARKS
YAP AIRPORT    MOSUNNY   88  73  62 NE14      29.81F HX  96           
CHUUK AP       CLOUDY    86  79  79 NE8       29.71F HX  99           
POHNPEI AP     CLOUDY    82  77  83 SE6       29.71S HX  91           
POHNPEI WSO    CLOUDY    82  79  89 E5        29.75S HX  93           
KOSRAE AP      NOT AVBL                                               

$$

PMZ181-190600-
REPUBLIC OF THE MARSHALL ISLANDS-
  
CITY           SKY/WX    TMP DP  RH WIND       PRES   REMARKS
KWAJALEIN AP   MOSUNNY   84  72  65 E20       29.78R                  
MAJURO AP      NOT AVBL                                               
MAJURO WSO     MOSUNNY   82  73  74 E9        29.75S                  

$$